Location: Lac de la Montange Noire
(46.1952°N, 74.2701°W)
Time: 04:04:06
(UTC-05:00)

Iridium 42 - Visible Passes

Search period start: 25 February 2017 00:00
Search period end: 07 March 2017 00:00
Orbit: 775 x 778 km, 86.4° (Epoch: 24 February)

Date Brightness Start Highest point End Pass type
(mag) Time Alt. Az. Time Alt. Az. Time Alt. Az.
25 Feb 8.2 04:32:08 10° NNE 04:35:53 20° ENE 04:39:37 10° ESE visible
25 Feb 5.6 06:11:53 10° N 06:17:00 58° W 06:22:05 10° SSW visible
25 Feb 7.5 19:11:55 10° SW 19:16:29 30° WNW 19:21:05 10° NNW visible
26 Feb 8.8 04:00:04 10° NE 04:01:37 11° ENE 04:03:08 10° E visible
26 Feb 5.7 05:37:57 10° N 05:43:12 81° E 05:48:25 10° S visible
26 Feb 6.4 18:37:23 10° SSW 18:42:28 53° W 18:47:35 10° N visible
27 Feb 6.7 05:04:16 10° N 05:09:18 45° E 05:14:17 10° SSE visible
27 Feb 5.6 18:03:22 10° S 18:08:35 87° E 18:13:50 10° N visible
27 Feb 8.7 19:47:38 10° W 19:50:03 13° WNW 19:52:29 10° NW visible
28 Feb 7.7 04:30:51 10° NNE 04:35:14 26° ENE 04:39:35 10° SE visible
28 Feb 8.1 19:11:45 10° SW 19:15:49 23° WNW 19:19:54 10° NNW visible
01 Mar 8.5 03:57:57 10° NE 04:01:03 16° ENE 04:04:06 10° ESE visible
01 Mar 5.5 05:37:09 10° N 05:42:22 74° W 05:47:33 10° S visible
01 Mar 7.2 18:36:53 10° SSW 18:41:43 39° W 18:46:36 10° N visible
02 Mar 6.0 05:03:20 10° N 05:08:31 63° E 05:13:40 10° SSE visible
03 Mar 7.1 04:29:44 10° NNE 04:34:33 36° E 04:39:19 10° SE visible
03 Mar 8.5 19:11:53 10° WSW 19:15:12 17° WNW 19:18:31 10° NNW visible
04 Mar 8.0 03:56:30 10° NNE 04:00:26 21° ENE 04:04:19 10° ESE visible
04 Mar 5.6 05:36:24 10° NNW 05:41:29 53° W 05:46:32 10° SSW visible
04 Mar 7.8 18:36:33 10° SW 18:41:01 28° WNW 18:45:31 10° NNW visible
05 Mar 8.7 03:24:09 10° NE 03:26:10 12° ENE 03:28:11 10° E visible
05 Mar 5.5 05:02:27 10° N 05:07:42 87° E 05:12:55 10° S visible
06 Mar 6.5 04:28:43 10° N 04:33:48 49° E 04:38:50 10° SSE visible
06 Mar 8.8 19:12:33 10° W 19:14:37 12° WNW 19:16:40 10° NW visible
